Home > Weather > Fort Bragg > Past weeks

Flag for USA Past Weather in Fort Bragg, California, USA — Yesterday and Last 2 Weeks

Now
50 °F

Clear.


Feels Like: 50 °F
Forecast: 52 / 65 °F
Wind: No wind

Location: Ukiah Municipal

Current Time: Aug 25, 2016 at 6:38:43 AM

Latest Report: Aug 25, 2016 at 5:56 AM


Visibility: 10 mi

Pressure: 29.91 "Hg

Humidity: 80%

Dew Point: 44 °F

Location of Fort BraggLocation

Past Weather in Fort Bragg — Graph

°F

Fort Bragg Temperature Yesterday

Maximum temperature yesterday: 94 °F (at 3:56 PM)
Minimum temperature yesterday: 48 °F (at 6:56 AM)
Average temperature yesterday: 69 °F

High & Low Weather Summary for the Past Weeks

 TemperatureHumidityPressure
High102 °F (Aug 16, 2:56 PM)93% (Aug 24, 5:59 AM)30.08 "Hg (Aug 24, 5:59 AM)
Low48 °F (Aug 24, 6:56 AM)8% (Aug 24, 4:56 PM)29.71 "Hg (Aug 17, 4:56 PM)
Average74 °F47%29.88 "Hg
* Reported Aug 10 4:56 AM — Aug 25 4:56 AM, Fort Bragg, Weather by CustomWeather, © 2016

Note: Actual official high and low records may vary slightly from our data, if they occured in-between our weather recording intervals... More about our weather records

Advertising

Fort Bragg Weather History for the Previous 24 Hours

Scroll right to see more
 ConditionsComfort  
Time TempWeatherWind HumidityBarometerVisibility
4:56 AM
Thu, Aug 25
54 °FClear.No wind72%29.91 "Hg10 mi
3:56 AM54 °FClear.No wind69%29.91 "Hg10 mi
2:56 AM54 °FClear.No wind74%29.91 "Hg10 mi
1:56 AM56 °FClear.No wind65%29.91 "Hg10 mi
12:56 AM59 °FClear.No wind58%29.92 "Hg10 mi
11:56 PM
Wed, Aug 24
61 °FClear.No wind52%29.93 "Hg10 mi
10:56 PM65 °FClear.No wind44%29.93 "Hg10 mi
9:56 PM66 °FClear.No wind47%29.93 "Hg10 mi
8:56 PM72 °FClear.3 mph31%29.92 "Hg10 mi
7:56 PM77 °FSunny.No wind24%29.92 "Hg10 mi
6:56 PM85 °FSunny.No wind21%29.90 "Hg10 mi
5:56 PM90 °FSunny.7 mph11%29.90 "Hg10 mi
4:56 PM92 °FSunny.10 mph8%29.91 "Hg10 mi
3:56 PM94 °FSunny.14 mph9%29.92 "Hg10 mi
2:56 PM93 °FSunny.No wind17%29.94 "Hg10 mi
1:56 PM90 °FSunny.3 mph23%29.96 "Hg10 mi
12:56 PM85 °FSunny.5 mph25%29.99 "Hg10 mi
11:56 AM80 °FSunny.5 mph26%30.03 "Hg10 mi
10:56 AM72 °FSunny.No wind44%30.05 "Hg10 mi
9:56 AM65 °FSunny.No wind56%30.06 "Hg10 mi
8:56 AM58 °FSunny.No wind72%30.07 "Hg10 mi
7:56 AM50 °FSunny.No wind93%30.08 "Hg10 mi
6:56 AM48 °FClear.No wind89%30.06 "Hg10 mi
6:03 AM50 °FFog.No wind93%30.08 "Hg2 mi
Weather by CustomWeather, © 2016

See weather overviewHow to use our weather pages